Starlink 11116

operational
NORAD ID: 60045 Int'l Des: 2024-112 Owner: SPXS Country: US Constellation: starlink
LEOCIRCULAR

Starlink 11116について

説明を読み込み中...

リアルタイム位置

3D地球を読み込み中...

次回通過

高度履歴

Altitude vs Time

uPlot chart will show altitude changes over time

軌道要素

1 60045U 24112H 25260.64739360 -.00001435 00000-0 -69904-5 0 9996
2 60045 53.1579 39.2390 0000957 71.2220 288.8902 15.69716294 73803
Epoch: Sep 17, 2025 • Age: 23 hours

現在のステータス

高度 359.6 km
速度 7.70 km/s
衛星直下点 10.05°N, 173.33°W
打ち上げ日 Jun 8, 2024
運用期間 1.2 years
タイプ internet

技術仕様

分類 Payload
質量 960.00 kg
乾燥質量 910.00 kg
総質量 960.00 kg
長さ 0.30 m
直径 4.10 m
スパン 29.00 m
形状 Box + pan
製造者 SPXS
バスタイプ Starlink V2MD
フェーズステータス In Orbit
所有者/国 SPXS/US

大規模コンステレーション

Loading constellations...